Location: Altenst�hlen
(53.5567°N, 8.9425°E)
Time: 08:27:28
(UTC+00:00)

Cosmos 2227 Rocket - Pass Details

Date: 23 October 2019
Orbit: 838 x 846 km, 71.0° (Epoch: 11 November)

Event Time Altitude Azimuth Distance (km) Brightness Sun altitude
Rises 19:07:02 0° 324° (NW) 3,420 6.2 -26.6°
Reaches altitude 10° 19:10:07 10° 340° (NNW) 2,483 5.1 -27.1°
Enters shadow 19:14:03 21° 24° (NNE) 1,823 3.9 -27.6°
